Orbital elements:
2006 WH1                                            PHA, Earth MOID = 0.0234 AU
Epoch 2007 Apr. 10.0 TT = JDT 2454200.5                 MPC
M  30.69866              (2000.0)            P               Q
n   0.45520653     Peri.  262.98688     -0.80648965     -0.58987567
a   1.6736465      Node   240.85689     +0.55903292     -0.73860443
e   0.4853681      Incl.    2.64223     +0.19250099     -0.32635900
P   2.17           H   20.2           G   0.15           U   4
Residuals in seconds of arc
061023 691  0.0   0.4-    061205 H45  0.0   0.2-    061212 703  0.0   0.4-
061023 691  0.1+  0.2-    061206 G72  0.0   0.0     061212 703  0.1-  0.2-
061023 691  1.2+  0.3-    061206 G72  0.4-  0.3+    061212 703  0.5-  0.3-
061110 691  1.3+  0.4+    061206 G72  0.6-  0.5+    061212 379  0.4+  0.2-
061110 691  0.1-  0.2-    061206 G72  0.1-  0.1+    061212 379  0.3+  0.1-
061110 691  0.0   0.3-    061206 G72  0.6-  0.1+    061212 379  0.0   0.1-
061111 703  0.3+  0.6+    061206 G72  0.2-  0.0     061212 379  0.3+  0.3-
061111 703  0.4+  0.2-    061206 H45  0.2-  0.2-    061212 379  0.5+  0.1-
061111 703  0.6-  0.3+    061206 H45  0.2-  0.4-    061212 379  0.5+  0.2-
061111 703  0.6-  0.1-    061206 H45  0.1-  0.3-    061212 379  0.2+  0.2-
061115 691  0.2+  0.1+    061206 H45  0.2-  0.4-    061212 379  0.2+  0.2-
061115 691  0.0   0.2+    061206 H45  0.5-  0.3-    061212 A78  0.5-  0.3-
061115 691  0.1+  0.2+    061206 H45  0.2-  0.4-    061212 A78  0.1-  0.2-
061117 704  1.1+  0.5-    061207 644  0.4-  0.3-    061212 A78  0.0   0.0
061117 704  0.9+  0.6-    061207 644  0.4-  0.2-    061212 A78  0.5-  0.7-
061117 704  1.4+  0.4+    061207 644  0.5-  0.3-    061212 A78  0.0   0.0
061118 J75  0.2-  0.2-    061207 G72  0.1+  0.0     061212 113  0.1-  0.4-
061118 J75  0.3+  0.1+    061207 G72  0.5-  0.0     061212 113  0.2-  0.6-
061118 J75  0.2+  0.3-    061207 G72  0.1+  0.6+    061212 113  0.1-  0.5-
061118 J75  0.2+  0.3-    061207 G72  0.0   0.0     061212 113  0.1-  0.4-
061118 J75  0.2+  0.3-    061207 G72  0.3+  0.4+    061212 113  0.0   0.5-
061118 J75  0.1-  0.3-    061207 G72  0.1-  0.2-    061212 113  0.0   0.4-
061118 J75  0.1-  0.1+    061208 G72 (0.4-  2.2+)   061212 A24  0.1+  0.3-
061118 J75  0.6-  0.0     061208 G72  0.3-  0.0     061212 A24  0.5+  0.1+
061118 J75  0.1-  0.1+    061208 G72  0.5-  0.1-    061212 A24  0.6-  0.6-
061118 J75  0.4+  0.2+    061208 G72  0.6-  0.4+    061212 A24  0.1-  0.0
061118 704  0.6-  0.0     061208 G72  0.1-  0.3+    061213 704  0.2+  0.5-
061118 704  0.9-  0.2-    061208 G72  0.0   0.2+    061213 704 (1.2+  2.4+)
061118 704  0.9-  0.1-    061208 H51  0.1+  0.6-    061213 704  0.2+  0.5-
061118 704  1.0-  0.2+    061208 H51  0.1+  0.5-    061213 704  0.1-  0.5-
061118 704  0.6-  0.4+    061208 H51  0.2-  0.5-    061213 704  0.3+  0.0
061119 J75  0.1+  0.2-    061208 H51  0.1-  0.5-    061213 G72  0.2-  0.5+
061119 J75  0.0   0.1-    061208 H51  0.4+  0.4-    061213 G72  0.2-  0.2+
061119 J75  1.4-  1.7-    061208 H51  0.1+  0.4-    061213 G72  0.5-  0.4-
061119 J75  0.2-  0.3-    061208 H51  0.2-  0.5-    061213 H45  0.1-  0.4-
061119 J75  0.1-  0.3-    061208 H51  0.0   0.5-    061213 H45  0.3-  0.3-
061119 J75  0.0   0.1-    061208 H51  0.3-  0.7-    061213 G72  0.4-  0.1+
061119 J75  0.0   0.3-    061208 H51  0.2+  0.5-    061213 H45  0.2-  0.3-
061119 J75 (2.3-  3.4-)   061208 941  0.2-  0.3-    061213 G72  0.2-  0.3-
061119 J75  0.3-  0.3-    061208 941  0.0   0.4-    061213 H45  0.2-  0.2-
061119 J75  0.1+  0.3-    061208 941  0.1-  0.4-    061213 H45  0.1-  0.5-
061119 J75  0.1+  0.4-    061208 941  0.1+  0.2-    061213 G72  0.1-  0.1-
061119 J75  0.2+  0.3-    061209 H98  0.4-  0.1-    061213 H45  0.2-  0.3-
061119 J75  0.3+  0.1-    061209 H98  0.2+  0.1-    061213 H45  0.2-  0.4-
061119 J75  0.1-  0.6-    061209 H98  1.2+  0.7+    061213 151  0.2-  0.2-
061119 J75  0.3-  0.9-    061209 H98  0.4+  0.1-    061213 151  0.2-  0.1-
061119 J75  0.2+  0.5-    061209 699  0.1-  0.1-    061213 151  0.1-  0.1+
061119 J75  0.0   0.6-    061209 699  0.5-  0.2-    061213 151  0.2-  0.1-
061119 J75  0.0   0.7-    061209 699  0.8-  0.7-    061213 151  0.1-  0.1+
061119 J75  0.1-  0.5-    061209 699  0.6-  0.2-    061213 151  0.1-  0.0
061119 J75  0.4+  0.5-    061209 A67  1.2+  1.3+    061213 151  0.1-  0.3-
061119 691  0.1-  0.2-    061209 A67  0.6+  0.5+    061213 A24  0.4-  0.8-
061119 691  0.2-  0.3-    061209 A67  0.7+  0.4+    061213 A24  0.1+  0.2+
061119 691  0.1-  0.2-    061209 A67  0.7+  0.5+    061213 A53  0.1-  0.2+
061120 J75  0.3+  0.2-    061209 A67  0.2+  1.1+    061213 A53  0.1-  0.5+
061120 J75  0.0   0.7-    061209 A67  1.0+  0.3+    061213 A53  0.0   0.0
061120 J75  0.3+  0.2-    061209 A67  0.3+  0.5+    061213 A53  0.0   0.5+
061120 J75  0.3-  0.3-    061209 A67  0.9+  0.4+    061213 203  0.1-  0.4-
061121 704  0.3-  0.0     061209 A67  1.5+  0.6+    061213 203  0.0   0.4-
061121 704  0.7-  0.1+    061209 A67  0.3+  0.6+    061213 A24  0.3+  0.5+
061121 704  0.6-  0.5+    061209 A67  0.6+  0.6+    061213 A24  0.4-  0.4+
061121 704  0.8-  0.3+    061209 A67  0.2-  0.7+    061214 H45  0.1-  0.2-
061121 704  0.8-  0.4+    061209 A67  0.2+  1.0+    061214 H45  0.1-  0.2-
061122 691  0.0   0.2+    061209 A67  0.9+  0.6+    061214 H45  0.0   0.3-
061122 691  0.0   0.1+    061209 A67  1.5+  0.8+    061214 H45  0.0   0.3-
061122 691  0.1+  0.1+    061209 A67  0.4+  0.3+    061214 H45  0.0   0.1-
061124 H68  0.4-  0.2-    061209 A67  0.6+  0.7+    061214 H45  0.1-  0.3-
061124 H68  0.5-  0.1-    061209 A67  1.0+  0.7+    061214 246  0.1-  0.4+
061124 H68  0.5-  0.3-    061209 A67  0.3+  0.5+    061214 246  0.0   0.6+
061124 H68  0.5-  0.5-    061209 A67  0.9+  0.6+    061214 246  0.3-  0.1+
061124 H68  0.5-  0.5-    061209 A67  0.7+  0.5+    061214 246  0.2-  0.2+
061124 H45  0.3-  0.4-    061209 A67  0.8+  0.2+    061214 246  0.1-  0.5+
061124 H45  0.4-  0.3-    061209 A67  0.3+  0.5+    061214 246  0.1+  0.7+
061124 H45  0.2-  0.3-    061209 A67  0.8+  0.7+    061214 A24  0.7-  0.0
061124 H45  0.1-  0.2-    061209 A67  0.8+  0.1-    061214 A24  0.3-  0.3+
061124 H45  0.3-  0.2-    061209 A67  0.6+  0.4+    061214 203  0.4-  0.6-
061124 H45  0.2-  0.2-    061209 A67  0.7+  0.4+    061214 203  0.2-  0.4-
061125 H98  0.2+  0.4-    061209 A67  0.6+  0.5+    061214 A24  0.0   0.2+
061125 H98  0.0   0.5-    061209 A67  1.0+  0.8+    061214 A24  0.4-  0.0
061125 H98  0.1+  0.5-    061209 A67  0.3+  0.7+    061215 127  0.2-  0.1+
061125 H45  0.1-  0.1-    061209 A67  0.6+  0.8+    061215 127  0.4-  0.1-
061125 H45  0.1-  0.1-    061209 A67  0.6+  0.6+    061215 113  0.1-  0.9-
061125 H45  0.1-  0.1-    061209 A67  0.8+  0.3+    061215 113  0.0   0.8-
061125 H45  0.1-  0.2-    061209 A67  0.7+  0.5+    061215 113  0.1-  1.0-
061125 H45  0.1-  0.2-    061209 A67  0.8+  0.7+    061215 113  0.2-  0.8-
061125 H45  0.2-  0.2-    061209 A67  0.5+  0.6+    061215 A17  0.2-  0.4-
061125 H68  0.7-  0.4-    061209 A67  0.9+  0.1+    061215 246  0.0   0.7+
061125 H68  0.6-  0.3+    061209 A67  0.5+  0.9+    061215 246  0.2-  0.4+
061125 H68  0.6-  0.3+    061209 A67  0.5+  0.8+    061215 246  0.3-  0.3+
061125 H68  0.6-  0.5-    061209 A67  1.2+  0.9+    061215 246  0.2-  0.4+
061126 H45  0.1-  0.3-    061209 A67  0.6+  0.5+    061215 246  0.0   0.8+
061126 H45  0.1-  0.2-    061209 A67  0.8+  0.9+    061215 246  0.1-  0.6+
061126 H45  0.0   0.2-    061209 A67  0.7+  0.5+    061215 246  0.1-  0.8+
061126 H45  0.1-  0.1-    061209 A67  1.0+  0.5+    061215 A17  0.4-  0.3-
061126 H45  0.1-  0.1-    061209 A67  0.8+  0.2+    061215 A17  0.1-  0.3-
061126 H45  0.1-  0.3-    061209 A67  0.4+  0.9+    061215 246  0.0   0.6+
061126 151  0.8-  0.6+    061209 A67  0.6+  0.4+    061215 246  0.2-  0.4+
061126 151  0.5-  0.2+    061209 A67  0.5+  1.3+    061215 246  0.3+  1.2+
061126 151  0.2-  0.1-    061209 A67  0.4+  0.5+    061215 246  0.2+  1.0+
061126 151  0.4-  0.2-    061209 A67  0.4+  0.8+    061215 246  0.3+  1.1+
061126 151  0.4-  0.3-    061209 A67  0.8+  0.6+    061215 246  0.1-  0.8+
061126 151  0.4-  0.3-    061209 A67  0.8+  0.1+    061215 J87  0.0   0.2-
061126 639  0.4-  0.2+    061209 A67  1.2+  0.6+    061215 J87  0.0   0.3-
061126 639  0.3-  0.0     061209 A67  0.6+  0.5+    061215 J87  0.0   0.2-
061126 639  0.2-  0.1-    061209 A67  0.7+  0.4+    061216 696  0.1+  0.0
061126 639  0.6-  0.1-    061209 A67  0.7+  0.4+    061216 696  0.0   0.0
061126 639  0.2-  0.4+    061209 A67  0.8+  0.3+    061216 176  0.0   0.2-
061127 703  0.2+  0.0     061209 A67  0.4+  0.5+    061216 176  0.1+  0.3-
061127 703  0.4-  0.2-    061209 A67  0.7+  0.8+    061216 176  0.0   0.3-
061127 703  0.3-  0.0     061209 A67  0.6+  0.8+    061216 176  0.2+  0.2-
061127 703  0.3-  0.2-    061209 A67  0.4+  0.8+    061216 176  0.0   0.5-
061127 704  0.2-  0.1-    061209 A67  0.7+  0.4+    061218 H68  0.8-  1.0-
061127 704  0.1-  0.1+    061209 A67  0.6+  0.6+    061218 H68  0.7-  0.9-
061127 704  0.4-  0.2-    061209 A67  0.7+  0.4+    061218 H68  0.6-  1.0-
061127 113  0.1-  0.3-    061209 A67  0.0   0.5+    061218 H68  0.8-  1.2-
061127 113  0.2-  0.3-    061209 A67  1.0+  0.5+    061218 H68  0.9-  1.1-
061127 113  0.1-  0.2-    061209 A67  0.6+  0.5+    061218 H68  1.0-  1.2-
061127 113  0.2-  0.3-    061209 A67  0.2+  0.9+    061218 H68  1.1-  1.0-
061127 113  0.1+  0.4-    061209 A67  0.5+  0.5+    061218 G72  0.5+  0.3+
061127 113  0.2-  0.4-    061209 A67  0.7+  0.7+    061218 G72  0.1+  0.3-
061127 113  0.0   0.3-    061209 A67  0.9+  0.8+    061218 G72  0.4-  0.3-
061127 113  0.3-  0.4-    061209 A67  0.8+  0.4+    061218 G72  0.4+  0.2+
061127 113  0.1-  0.3-    061209 A67  0.9+  0.0     061218 G72  0.5-  0.5-
061127 113  0.4-  0.5-    061209 A67  0.9+  1.0+    061218 G72  0.3-  0.3-
061129 704  0.1+  0.6+    061209 A67  0.9+  0.3+    061218 379  0.2-  0.8-
061129 G72  0.0   0.9+    061209 A67  0.5+  0.8+    061218 379  0.2-  0.4-
061129 704  0.3-  0.5+    061209 A67  0.9+  0.1-    061218 379  0.1+  0.4-
061129 G72  0.9-  0.5+    061209 A67  0.1-  0.2+    061218 379  0.4-  0.4-
061129 G72  0.0   0.1-    061209 A67  0.5+  0.3+    061218 379  0.1+  0.5-
061129 G72  0.0   0.1-    061209 A67  0.8+  0.3-    061218 379  0.4-  0.2-
061129 G72  0.0   0.1+    061209 A67  0.6+  0.3+    061218 379  0.0   0.2-
061129 G72  0.3-  0.5+    061209 A67  0.9+  0.3+    061218 379  0.4-  0.4-
061129 704  0.2-  0.7+    061209 A67  0.2+  0.9+    061219 G72  0.4-  0.3-
061129 704  0.1-  0.4+    061209 A67  0.1+  1.1+    061219 G72  1.1+  0.8+
061129 704  0.1+  0.6+    061209 A67  1.0+  1.0+    061219 G72  0.0   0.0
061129 A78  0.1-  0.1+    061209 A67  0.6+  0.6+    061219 G72  0.6+  0.7+
061129 A78  0.3-  0.0     061210 379  0.5+  0.8-    061219 G72  0.1+  0.4+
061129 A78  0.3-  0.3-    061210 379  0.3+  0.4-    061219 G72  0.6-  0.4-
061129 A53  0.6-  0.1-    061210 379  0.4-  0.6-    061219 379  0.4+  0.4+
061129 A53  0.7-  0.1-    061210 379  0.4+  0.7-    061219 379  0.2+  0.1-
061129 A53  0.2-  0.1-    061210 379  0.3+  0.4-    061219 379  0.5+  0.3+
061129 A53  0.0   0.1+    061210 D35  0.0   0.1+    061219 379  0.1-  0.3+
061129 A53  0.6-  0.1+    061210 D35  0.1+  0.5+    061219 379  0.1+  0.5+
061130 G72  0.0   0.2-    061210 D35  0.3-  0.3+    061220 H68  0.7-  1.3-
061130 G72  0.2+  0.9+    061210 D35  0.0   0.2+    061220 H68  0.9-  1.5-
061130 G72  0.3+  0.3+    061210 151  0.3-  0.0     061220 H68  0.9-  1.5-
061130 G72  0.5-  0.2+    061210 151  0.5-  0.1+    061220 H68  0.9-  1.5-
061130 G72  0.5-  0.2+    061210 151  0.6-  0.2+    061220 G72 (1.4+  2.2+)
061130 G72  0.7-  0.4+    061210 151  0.6-  0.1-    061220 G72  0.9+  1.0+
061130 A24  0.2-  0.0     061210 151  0.5-  0.1-    061220 G72  0.7+  1.5+
061130 A53  0.4-  0.2+    061210 151  0.5-  0.2-    061220 G72  0.3-  0.7-
061130 A53  0.5-  0.2+    061210 151  0.6-  0.1+    061220 G72  0.5+  0.9+
061130 A24  0.1-  0.1+    061210 A48  0.4-  0.1-    061220 G72  0.6+  1.5+
061130 A53  0.5-  0.4+    061210 A48  0.5-  0.2+    061220 379  0.1+  0.3+
061130 A53  0.6-  0.3+    061210 A48  0.3-  0.1-    061220 379  0.1+  0.1+
061130 A24  0.9-  0.2-    061210 A48  0.9-  0.1+    061220 379  0.2-  0.3-
061201 204  0.2-  0.4-    061210 A48  0.7-  0.2+    061220 379  0.1+  0.0
061201 204  0.2-  0.2-    061210 130  0.2+  0.4-    061220 379  0.4-  0.2-
061201 204  0.1-  0.3-    061210 130  0.0   0.5-    061220 379  0.1+  0.2+
061201 691  0.3-  0.2+    061210 130  0.2-  0.6-    061220 379  0.4+  0.1+
061201 691  0.3-  0.1+    061210 130  0.0   0.3-    061220 379  0.3-  0.2-
061201 691  0.4-  0.2+    061210 595  0.4-  0.0     061220 379  0.3-  0.3+
061201 G72  0.1-  0.0     061210 595  0.3-  0.2-    061220 151  0.3-  0.2+
061201 G72  0.5-  0.3-    061210 A06  0.1-  0.1+    061220 151  0.2-  0.2+
061201 G72  0.2-  0.4+    061210 595  0.4-  0.0     061220 151  0.1+  0.1+
061201 G72  0.4-  0.6+    061210 127  0.5-  0.1+    061220 151  0.3-  0.1+
061201 G72  0.2-  0.2-    061210 A06  0.2+  0.1-    061220 151  0.2-  0.2+
061201 G72  0.3-  0.2+    061210 127  0.3-  0.3+    061220 151  0.4-  0.1+
061201 355  0.1+  0.7-    061210 127  0.2-  0.1+    061220 151  0.3-  0.1+
061201 355  0.0   0.5-    061210 127  0.0   0.1+    061220 A53  0.3-  0.6+
061201 355  0.4+  0.7-    061210 A24  0.6-  0.4-    061220 A53  0.4+  0.4+
061201 355  0.2-  0.1+    061210 A24  0.2-  0.1-    061220 A53  0.2-  1.1+
061201 355  0.1+  0.6-    061210 A53  0.5-  0.2-    061220 A53  1.4+  1.0+
061202 H45  0.4+  0.5+    061210 A53  0.0   0.5-    061221 834  0.0   1.0-
061202 H45  0.1-  0.2+    061210 473  0.1-  0.2-    061221 834  0.1-  0.7-
061202 G72  0.8+  0.2-    061210 A53  0.5-  0.0     061221 834  0.1-  0.6-
061202 G72  0.8-  0.5-    061210 A53  0.3-  0.0     061221 696  0.8+  0.2-
061202 H45  0.2+  0.1-    061210 A53  0.4-  0.0     061221 696  0.1+  0.2-
061202 G72  0.5-  0.9-    061210 473  0.1-  0.1-    061222 703  0.1+  0.6-
061202 H45  0.0   0.1-    061210 A24  0.6-  0.0     061222 703  0.3-  0.4-
061202 H45  0.1+  0.0     061210 A24  0.9-  0.1-    061222 703  0.0   0.3-
061202 G72  0.2+  0.4+    061211 A78  0.3-  0.3-    061222 703  0.2-  0.4-
061202 H45  0.1-  0.0     061211 A78  0.8-  0.5-    061224 A56  0.6+  0.1-
061202 H45  0.2-  0.0     061211 A78  0.3-  0.2-    061224 A56  0.0   0.2-
061202 G72  0.3+  1.0-    061211 A78  0.3-  0.5-    061224 A56  0.3+  1.0+
061202 G72  0.4+  0.1+    061211 A78  0.5-  0.1-    061224 A56  0.1-  0.1+
061203 G72  0.2-  0.3-    061211 A24  0.1+  0.1-    061224 A56  0.7+  0.2-
061203 G72  0.4-  0.3-    061211 A24  0.0   0.0     061224 A56  0.4-  0.3-
061203 G72  0.4-  0.6+    061211 A53  0.1-  0.4-    061224 A56  0.9+  0.2+
061203 G72  0.1+  0.2+    061211 A53  0.1+  0.1-    061224 A56  0.6+  0.2+
061203 G72  0.1-  0.4-    061211 A53  0.2-  0.1-    061224 A56  0.9+  0.1+
061203 G72  0.0   0.3+    061211 A53  0.2-  0.1-    070708 D35  0.3+  0.4+
061205 H45  0.0   0.2-    061211 A53  0.3-  0.0     070708 D35  0.6-  0.5-
061205 H45  0.3-  0.1-    061211 A24  0.6-  0.3-    070709 D35  1.0+  0.1-
061205 H45  0.0   0.1+    061211 A24  0.0   0.2+    070709 D35  1.2+  0.5+
061205 H45  0.1-  0.0     061212 A24  0.6-  0.3-
061205 H45  0.1+  0.2-    061212 703  0.0   0.4-

